Regional Weather Roundup
Issued by NWS Bismarck, ND

Home | Current Version | Previous Version | Text Only | Print | Product List | Glossary On
Versions: 1 2 3 4 5 6 7 8 9 10 11 12 13 14 15 16 17 18 19 20 21 22 23 24 25 26 27 28 29 30 31 32 33 34 35 36 37 38 39 40 41 42 43 44 45 46 47 48 49 50
342
ASUS43 KBIS 200610
RWRBIS

NWR BROADCAST TEXT
NATIONAL WEATHER SERVICE BISMARCK ND
100 AM CDT FRI OCT 20 2017

NOTE: "FAIR" INDICATES FEW OR NO CLOUDS BELOW 12,000 FEET WITH NO
SIGNIFICANT WEATHER AND/OR OBSTRUCTIONS TO VISIBILITY.


CITY           SKY/WX    TMP DP  RH WIND       PRES   REMARKS
WILLISTON      PTCLDY    46  35  65 CALM      29.55F
MINOT          FAIR      53  36  52 E3        29.59F
MINOT AFB      FAIR      50  36  57 S6        29.57F
BISMARCK       CLEAR     45  37  73 NE7       29.63F
DICKINSON      CLEAR     47  28  47 S9        29.57F
GARRISON         N/A     48  38  68 E6        29.60F
HETTINGER ARPT CLEAR     42  32  67 CALM      29.62F
JAMESTOWN      FAIR      48  41  76 S7        29.67F
CARRINGTON     FAIR      48  39  71 SE6       29.67F
HAZEN          FAIR      43  34  70 CALM      29.62F
LINTON           N/A     50  39  66 SE15      29.65F
RUGBY          FAIR      50  37  62 SE8       29.62F
STANLEY        FAIR      46  32  57 CALM      29.61F
TIOGA          FAIR      50  32  50 E5        29.59F
WATFORD CITY   FAIR      45  32  61 N5        29.55F
$$

CITY           SKY/WX    TMP DP  RH WIND       PRES   REMARKS
GRAND FORKS    FAIR      49  42  77 S7        29.68F
GRAND FORKS AF FAIR      48  40  74 S7        29.68F
DEVILS LAKE    FAIR      46  41  82 SE5       29.66F
FARGO          FAIR      58  48  69 SE13G22   29.71F
CANDO          FAIR      39  39 100 SE7       29.66F
CAVALIER       FAIR      46  39  76 SE5       29.65F
GRAFTON        FAIR      45  39  81 S8        29.69S
GWINNER          N/A     50  46  87 SW7       29.71F
LANGDON        FAIR      46  39  76 S9        29.67F
ROLLA          FAIR      48  32  53 SW8       29.65F
WALHALLA       FAIR     N/A N/A N/A SW6       29.64F
$$

CITY           SKY/WX    TMP DP  RH WIND       PRES   REMARKS
ABERDEEN       CLEAR     58  49  72 S14       29.72F
MOBRIDGE       CLEAR     58  46  64 SE14      29.63F
BUFFALO          N/A     56  25  30 S5        29.54F
RAPID CITY     CLEAR     54  24  31 S6        29.68F
GLASGOW        CLOUDY    52  31  44 E14       29.46F
SIDNEY         PTCLDY    43  33  68 CALM      29.53F
WOLF POINT     CLOUDY    48  29  47 NE7       29.50F
GLENDIVE       PTCLDY    48  31  51 N3        29.54F
MILES CITY     CLEAR     54  30  40 S9        29.52F
BAKER          CLEAR     47  30  51 SE10      29.57F
$$

CITY           SKY/WX    TMP DP  RH WIND       PRES   REMARKS
BILLINGS       PTCLDY    62  22  21 W16       29.55F
GREAT FALLS    MOCLDY    57  16  20 S10       29.45F
REGINA         PTCLDY    45  25  45 E12       29.50F
ESTEVAN        PTCLDY    43  30  61 SE6       29.55F
$$





USA.gov is the U.S. government's official web portal to all federal, state and local government web resources and services.